STARLINK-4144 (53257 NORAD) Tracking and Keplerian Element Data

This shows tracking and keplerian element data for the satellite.

Feedback or suggestion? Click here.




ElementValue
Catalog53257
NameSTARLINK-4144
Epoch Orbit1074
Epoch Day270.25001157
Epoch Year2022
RAAN88.1396
Inclination53.2172
Eccentricity0.0001336
Argument of Perigee77.3653
Mean Anonmoly144.5749
Mean Motion15.19884913
Decay Rate-0.0107134
L11 53257U 22086R 22270.25001157 -.01071340 00000+0 -53888-1 0 9994
L22 53257 53.2172 88.1396 0001336 77.3653 144.5749 15.19884913 10748

Live tracking and technical data element details for STARLINK-4144 (NORAD 53257). STARLINK-4144 can be tracked NOW for your location showing map with azimuth and elevation plus other details from your city location.

Track the satellite on the map from your city or location and see movement details for azimuth, elevation, latitude, longitude, range, height, and movement on the map or in text.







IsCatalogInMostPopularTable: catalog: 53257, numindb: 3
Update: records affected: 1



GetName: 53257 STARLINK-4144

Hit Count: updated at: Thu, 29 Sep 2022 12:22:41 GMT